0 HST 1 20580U 90037B 26035.00659074 .00008870 00000-0 29858-3 0 9999 2 20580 28.4666 269.6866 0002008 97.1098 262.9725 15.28939114768159 0 ISS (ZARYA) 1 25544U 98067A 26035.01771291 .00010297 00000-0 19874-3 0 9995 2 25544 51.6311 238.8105 0011108 61.9619 298.2491 15.48378125551111 0 CXO 1 25867U 99040B 26034.50897227 .00000739 00000-0 00000-0 0 9994 2 25867 54.0018 120.6888 8050674 310.8579 0.1951 0.37804724 16822